www.pogodaiklimat.ru

Погода и климат >> Архив погоды >> Россия >> Якутия >> Усть-Чаркы


ПОГОДА в Усть-Чарках

  • Прогноз погоды в Усть-Чарках
  • Монитор погоды в Усть-Чарках

АРХИВ ПОГОДЫ в Усть-Чарках

Время (UTC), дата Ветер
(напр.,м/с)
 
Видим.   Явления Облачность Т
(С)
Тd
(С)
f
(%)
Тe
(С)
Тes
(С)
Комфортность P
(гПа)
Po
(гПа)
Тmin
(С)
Tmax
(С)
R
(мм)
R24
(мм)
S
(см)
03 14.05 СВ 1 50 км 8/8 1000 м
[Sc]
+7.2 -5.8 39 +7 +9 1019.3 986.0
06 14.05 В 2 50 км 8/3 1000 м
[Cu hum Ac trans]
+9.5 -5.6 34 +9 +11 1017.8 984.8
09 14.05 С 2 50 км 1/1 1000 м
[Cu hum]
+10.4 -4.8 34 +10 +11 1016.7 983.8 +11.2
12 14.05 штиль 0 50 км ясно +7.5 -4.8 41 +7 +7 1016.8 983.5
15 14.05 штиль 0 50 км 4/0
[Ac trans]
-2.9 -5.9 80 -4 -4 1018.3 983.7
18 14.05 штиль 0 50 км 3/0
[Ac trans]
-3.9 -6.1 85 -5 -5 1019.2 984.4
21 14.05 штиль 0 50 км 10/0
[Cs]
+0.2 -3.5 76 -1 +2 1016.8 982.8 -6.0
00 15.05 В 1 50 км 10/0
[Cs]
+8.5 -4.4 40 +8 +16 1014.3 981.3
03 15.05 СВ 1 50 км 6/0
[Ci fib]
+12.8 -3.7 31 +13 +24 опасность
простуды
1011.9 979.4
06 15.05 штиль 0 50 км 1/1 1000 м
[Cu hum]
+14.7 -5.2 25 +15 +23 1010.1 977.9
09 15.05 СВ 1 50 км ясно +14.1 -5.5 25 +15 +17 1009.4 977.3 +16.5
12 15.05 штиль 0 50 км 4/0
[Ci fib]
+8.0 -9.1 29 +8 +8 1010.6 977.5
15 15.05 штиль 0 50 км 4/0
[Ci fib]
-0.1 -7.3 58 -1 -1 1012.0 978.0
18 15.05 штиль 0 50 км 6/0
[Ci fib]
-1.5 -5.9 72 -2 -2 1012.8 978.6
21 15.05 штиль 0 50 км 8/0
[Ci fib]
+1.9 -3.5 67 +1 +4 1012.1 978.3 -4.8
00 16.05 ЮЗ 3 50 км 3/0
[Ci fib]
+11.9 -3.7 33 +11 +17 1010.2 977.6
03 16.05 ЮВ 2 50 км 6/0
[Ac trans Ci fib]
+15.1 -2.6 29 +15 +23 1009.1 977.1
06 16.05 С 3 50 км 6/3 1000 м
[Cu hum Ci fib]
+16.1 -2.3 28 +16 +20 1008.6 976.7
09 16.05 С 3 50 км 9/8 1000 м
[Sc Ac trans Ci fib]
+14.1 -2.9 31 +13 +14 1009.1 977.0 +17.4
12 16.05 СЗ 4 50 км 10/6 600 м
[Cb cap Ac trans Cs]
+7.5 -5.7 39 +5 +5 1012.1 979.0
15 16.05 С 4 20 км слаб. ливневой дождь 10/10 600 м
[Cb cap]
+2.7 -3.5 64 -2 -2 1014.0 980.3
18 16.05 С 3 20 км слаб. ливневой дождь 10/10 600 м
[Cb cap]
+1.9 -2.8 71 -2 -2 1015.6 981.7
21 16.05 С 5 50 км {ливн. осадки} 10/8 300 м
[Cb cap As op]
0.0 -4.1 74 -6 -6 1015.6 981.6 0.0 1
00 17.05 СЗ 3 50 км {ливн. осадки} 10/10 300 м
[St]
+0.6 -4.0 71 -4 -4 1015.9 981.9
03 17.05 С 4 50 км 10/10 1000 м
[Sc]
+2.7 -3.9 62 -2 -2 1015.4 981.6
06 17.05 С 3 50 км 10/10 1000 м
[Sc]
+0.6 -4.4 69 -4 -4 1015.6 981.6
09 17.05 С 3 50 км 10/10 600 м
[Cb cap]
-1.0 -4.2 79 -6 -6 1016.2 981.9 +3.0
12 17.05 С 2 10 км слаб. ливневой снег 10/10 600 м
[Cb cap]
-2.6 -2.9 98 -7 -7 1017.5 983.1
15 17.05 С 3 10 км слаб. ливневой снег 10/10 600 м
[Cb cap]
-2.7 -3.4 95 -8 -8 1018.0 983.5
18 17.05 С 3 10 км слаб. ливневой снег 10/10 600 м
[Cb cap]
-2.9 -3.3 97 -8 -8 1018.2 983.7
21 17.05 СЗ 2 10 км слаб. ливневой снег 10/10 600 м
[Cb cap]
-3.9 -6.1 85 -8 -8 1019.0 984.2 -4.1 3 4
00 18.05 СВ 4 10 км слаб. ливневой снег 10/10 600 м
[Cb cap]
-3.6 -6.5 80 -10 -10 1019.2 984.6
03 18.05 С 4 50 км в посл. час ливневой снег 10/10 600 м
[Cb cap]
-3.2 -7.1 74 -9 -9 1019.4 984.8
06 18.05 С 3 50 км {ливн. осадки} 10/10 600 м
[Cb cap]
-2.4 -7.2 70 -7 -7 1019.0 984.5
09 18.05 С 4 10 км слаб. ливневой снег 10/10 600 м
[Cb cap]
-2.9 -5.6 82 -9 -9 1018.6 984.0 -2.3 0.3
12 18.05 С 2 10 км слаб. ливневой снег 10/10 600 м
[Cb cap]
-2.9 -4.2 91 -7 -7 1017.9 983.4
15 18.05 С 1 10 км слаб. ливневой снег 10/10 600 м
[Cb cap]
-3.1 -4.1 93 -5 -5 1017.3 982.8
18 18.05 С 1 10 км слаб. ливневой снег 10/10 600 м
[Cb cap]
-3.9 -4.7 94 -6 -6 1016.9 982.2
21 18.05 С 1 50 км {ливн. осадки} 10/10 600 м
[Cb cap]
-6.4 -10.9 70 -9 -9 1016.8 981.9 -6.4 0.5 1
00 19.05 С 4 50 км {ливн. осадки} 10/10 600 м
[Cb cap]
-5.5 -10.6 67 -12 -12 1016.2 981.4
03 19.05 С 7
{11}
50 км 10/8 600 м
[Cb cap As op]
-3.7 -9.9 62 -11 -11 1015.0 980.5
06 19.05 С 6
{10}
50 км 10/6 600 м
[Cb cap As op]
-1.6 -8.9 57 -8 -8 1013.9 979.7
09 19.05 СЗ 5
{10}
50 км 10/5 600 м
[Cb cap Ac As]
-2.0 -9.1 58 -8 -8 1014.2 979.9 -1.3
12 19.05 С 2 50 км 10/10 1000 м
[Sc]
-2.9 -10.0 58 -6 -6 1014.5 980.1
15 19.05 СЗ 2 50 км 9/9 1000 м
[Sc]
-4.6 -11.2 60 -8 -8 1014.8 980.2
18 19.05 СЗ 3 50 км 9/9 1000 м
[Sc]
-5.1 -10.5 66 -10 -10 1015.1 980.4
21 19.05 ЮЗ 1 50 км 6/6 1000 м
[Sc]
-5.8 -11.0 67 -8 -7 1015.7 980.8 -6.8
00 20.05 Ю 1 50 км 9/9 1000 м
[Sc]
-2.6 -11.0 52 -4 -3 1015.0 980.6
03 20.05 Ю 2 50 км 8/4 1000 м
[Cu hum Ac trans]
+0.2 -11.2 42 -3 +1 1014.1 980.2
06 20.05 ЮВ 2 50 км 6/3 1000 м
[Cu hum Ci fib]
+2.1 -10.5 39 -0 +5 1013.4 979.6
09 20.05 ЮВ 1 50 км 8/0
[Ci sp]
+2.8 -10.3 37 +2 +4 1013.2 979.5 +3.1
12 20.05 В 1 50 км 3/0
[Ci fib]
+1.9 -9.8 42 +1 +1 1013.9 980.1
15 20.05 штиль 0 50 км 3/0
[Ci fib]
-6.3 -10.3 73 -7 -7 1015.5 980.6
18 20.05 штиль 0 50 км 3/0
[Ci fib]
-6.9 -9.8 80 -8 -7 1016.3 981.2
21 20.05 штиль 0 50 км 10/0
[Ci sp]
-1.3 -6.4 68 -2 +1 1016.5 982.2 -8.8

 

Местоположение метеостанции Усть-Чаркы (Якутия, Россия): широта 66.80 долгота 136.60 высота над уровнем моря 274 м.

В архиве по умолчанию представлена погода в Усть-Чарках за последнюю неделю. Архивные данные за месяц целиком и за предыдущие месяцы, начиная с января 2011 года, Вы можете получить, выбрав интересующий диапазон дат из раскрывающегося списка и нажав кнопку "Ввод!".


*Определитесь, кто Вы:
робот инопланетянин человек

Внимание! Время в таблицах - всемирное. Для получения местного времени необходимо прибавить поправку, которая равна 10 ч.

Смотрите также архив погоды в соседних городах и на ближайших метеорологических станциях:

Погода в Батагае (Якутия, Россия) (128 км)
Погода в Верхоянске (Якутия, Россия) (162 км)
Погода в Иэме (Якутия, Россия) (171 км)
Погода в Екюччю (Якутия, Россия) (219 км)
Погода в Батагай-Алыте (Якутия, Россия) (288 км)
Погода в Усть-Моме (Якутия, Россия) (294 км)
Погода в Депутатском (Якутия, Россия) (316 км)
Погода в Томпо (Якутия, Россия) (319 км)
Погода в Себян-Кюеле (Якутия, Россия) (341 км)
Погода в Усть-Куйге (Якутия, Россия) (358 км)

Пояснения к столбцам:

Ветер - указаны скорость ветра в м/с - средняя за 10 мин, порывы в срок и между сроками (в фигурных скобках) и направление, откуда дует ветер: С - северный, СВ - северо-восточный, В - восточный, ЮВ - юго-восточный, Ю - южный, ЮЗ - юго-западный, З - западный, СЗ - северо-западный.
Видимость - горизонтальная дальность видимости в метрах или километрах. При видимости от 1 до 10 км при отсутствии осадков обычно наблюдается дымка, при ухудшении видимости до 1 км и менее - туман. В сухую погоду видимость может ухудшаться дымом, пылью или мглою.
Явления - указаны атмосферные явления, наблюдавшиеся в срок или в последний час перед сроком; фигурными скобками обозначены явления, наблюдавшиеся между сроками (за 1-3 часа до срока); квадратными скобками обозначены град или гололедные отложения с указанием их диаметра в мм.
Облачность - указаны через наклонную черту общая и нижняя облачность в баллах и высота нижней границы облаков в метрах; квадратными скобками обозначены формы облаков: Ci - перистые, Cs - перисто-слоистые, Cc - перисто-кучевые, Ac - высококучевые, As - высокослоистые, Sc - слоисто-кучевые, Ns - слоисто-дождевые, Cu - кучевые, Cb - кучево-дождевые. Подробнее классификацию облаков см. в Атласе облаков (PDF).
T - Температура воздуха - температура, измеренная на высоте 2 м над землей.
Td - Температура точки росы - температура, при понижении до которой содержащийся в воздухе водяной пар достигнет насыщения.
f - Относительная влажность воздуха - влажноcть воздуха, измеренная на высоте 2 м над землей.
Te - Эффективная температура - температура, которую ощущает одетый по сезону человек в тени. Характеристика душности погоды. При расчете учитывается влияние влажности воздуха и скорости ветра на теплоощущения человека.
Tes - Эффективная температура на солнце - температура, которую ощущает человек, с поправкой на солнечный нагрев. Характеристика знойности погоды. Зависит от высоты солнца над горизонтом, облачности и скорости ветра. Ночью, в пасмурную погоду, а также при ветре 12 м/с и более поправка равна нулю.
P - Атмосферное давление - приведенное к уровню моря атмосферное давление.
Po - Атмосферное давление - измеренное на уровне метеостанции атмосферное давление.
Tmin - Минимальная температура - минимум температуры воздуха на высоте 2 м над землей.
Tmax - Максимальная температура - максимум температуры воздуха на высоте 2 м над землей.
R - Количество осадков - Количество выпавших осадков за период времени, мм. При наведении курсора мыши на число - период времени, за который выпало указанное количество осадков.
R24 - Количество осадков - Количество выпавших осадков за 24 часа, мм.
S - Снежный покров - Высота снежного покрова, см. При наведении курсора мыши на число - состояние снежного покрова и степень покрытия местности в баллах.